Regional Weather Roundup
Issued by NWS

Home | Current Version | Previous Version | Text Only | Print | Product List | Glossary Off
Versions: 1 2 3 4 5 6 7 8 9 10 11 12 13 14 15 16 17 18 19 20 21 22 23 24 25 26 27 28 29 30 31 32 33 34 35 36 37 38 39 40 41 42 43 44 45 46 47 48 49 50

000
ASUS43 KLOT 250308
RWRIL

ILLINOIS REGIONAL WEATHER ROUNDUP
NATIONAL WEATHER SERVICE CHICAGO/ROMEOVILLE IL
1000 PM CDT WED AUG 24 2016

NOTE: "FAIR" INDICATES FEW OR NO CLOUDS BELOW 12,000 FEET WITH NO
SIGNIFICANT WEATHER AND/OR OBSTRUCTIONS TO VISIBILITY.

* THESE STATIONS ARE NOT UNDER NWS QUALITY CONTROL. THEY ALSO MAY NOT
  REPORT WEATHER SUCH AS PRECIPITATION OR FOG.

ILZ001-002-007-009-015-016-024-250400-
NORTHWEST ILLINOIS

CITY           SKY/WX    TMP DP  RH WIND       PRES   REMARKS
MOLINE         TSTM      72  68  87 SW21G30   29.99R FOG
STERLING*      CLOUDY    76  73  91 VRB3      29.98R
SAVANNA*       RAIN      77  72  84 SW3       29.97R
$$

ILZ003-004-008-010-011-017-018-250400-
NORTH CENTRAL ILLINOIS

CITY           SKY/WX    TMP DP  RH WIND       PRES   REMARKS
ROCKFORD       CLOUDY    77  70  79 W5        29.97R
FREEPORT*      CLOUDY    75  69  81 SW6       29.99R
ROCHELLE*      CLOUDY    72  71  98 CALM      29.99R
DE KALB*       CLOUDY    74  72  93 S7        29.99R
$$

ILZ005-006-012>014-019>023-250400-
NORTHEAST ILLINOIS

CITY           SKY/WX    TMP DP  RH WIND       PRES   REMARKS
CHICAGO-OHARE  MOCLDY    76  71  85 S3        29.96S
CHICAGO-MIDWAY MOCLDY    79  71  76 SW7       29.96F HX  82
AURORA         CLOUDY    76  72  87 SW7       29.98R
LANSING*       CLEAR     72  69  89 SW5       29.99S
JOLIET*        CLOUDY    76  73  92 S3        29.98S
WAUKEGAN       PTCLDY    76  72  87 SW5       29.94S
DUPAGE AIRPORT CLOUDY    75  70  84 S7        29.97S
KANKAKEE*      CLEAR     71  69  93 S6        30.01R
WHEELING       CLEAR     77  72  84 S5        29.96F
MORRIS*        CLEAR     73  71  93 CALM      29.97S
ROMEOVILLE*    CLOUDY    73  69  88 SW6       29.98S
NORTHERLY ISL    N/A     80  70  71 SW6         N/A  HX  83
$$

LMZ740>746-250400-
SOUTHERN LAKE MICHIGAN

STATION/POSITION SKY/WX   TEMP    WIND        PRES    VSBY  WAVE
                          AIR SEA DIR/SP/G                  HT/PER
                          (F)     (DEG/KT/KT) (MB)    (MI)  (FT/S)
SOUTHERN BUOY              75 75  190/ 10/ 12 1013.3R         1/ 4
WILMETTE HARBOR            73 70  210/  4/  6   N/A           1
HARRISON CRIB              82     250/  9/ 10   N/A
BURNHAM HARBOR             80     210/  2/  8   N/A
CALUMET HARBOR             79                 1014.6R
BURNS HARBOR               78     210/ 11/ 13 1015.6R
MICHIGAN CITY              77     180/ 10/ 12   N/A
MICHIGAN CITY 6N           75 74  210/  6/  8   N/A           1/ 3
ST. JOSEPH                 76 75  230/  8/ 10 1014.4S         1/ 3
$$

ILZ025>027-034>036-040-047-049-050-058-095>099-250400-
WEST-CENTRAL ILLINOIS

CITY           SKY/WX    TMP DP  RH WIND       PRES   REMARKS
QUINCY         CLEAR     78  75  90 CALM      29.99S HX  81
GALESBURG*     CLOUDY    75  73  92 S5        30.01R
MACOMB*        CLOUDY    75  74  95 W3        30.03R
JACKSONVILLE*  CLEAR     78  73  85 S3        30.00R HX  81
PITTSFIELD*    CLEAR     78  75  92 CALM      30.01S HX  80
$$

ILZ028>032-037-038-041>044-048-051>054-059>061-250400-
CENTRAL ILLINOIS

CITY           SKY/WX    TMP DP  RH WIND       PRES   REMARKS
PONTIAC        CLOUDY    73  73  98 S3        30.01R
BLOOMINGTON    CLOUDY    75  72  90 S3        30.02S
DECATUR        CLEAR     76  73  91 CALM      30.01S
PEORIA         CLOUDY    79  74  84 S3        30.00R HX  82
LACON*         CLOUDY    75  71  87 CALM      29.99R
LINCOLN*       CLEAR     78  76  95 CALM      30.00R
SPRINGFIELD    CLEAR     78  74  87 CALM      30.00R HX  81
TAYLORVILLE    CLEAR     75  74  96 S3        30.01R
$$

ILZ033-039-045-046-055>057-062-063-250400-
EAST-CENTRAL ILLINOIS

CITY           SKY/WX    TMP DP  RH WIND       PRES   REMARKS
CHAMPAIGN      PTCLDY    74  72  93 SE5       30.02S
RANTOUL*       PTCLDY    77  74  91 CALM      30.02S
MATTOON        CLOUDY    78  71  79 S12       30.03S THUNDER HX  80
PARIS*         CLEAR     76  76  97 CALM      30.03F
$$

ILZ079-100>102-250400-
SOUTHWEST ILLINOIS

CITY           SKY/WX    TMP DP  RH WIND       PRES   REMARKS
ALTON          CLOUDY    79  75  89 S7        30.01S HX  82
BELLEVILLE     PTCLDY    80  76  89 S7        30.01R HX  85
CAHOKIA*       CLEAR     83  76  79 S3        30.01R HX  91
SPARTA*        CLEAR     81  76  84 S8        30.05R HX  88
$$

ILZ064>066-069>071-074>076-080>082-084>086-088>090-092>094-250400-
SOUTH-CENTRAL ILLINOIS

CITY           SKY/WX    TMP DP  RH WIND       PRES   REMARKS
CARBONDALE     CLEAR     79  75  87 S7        30.05S HX  83
CAIRO*         CLEAR     79  76  91 S5        30.08R HX  83
EFFINGHAM*     PTCLDY    80  79  96 SE5       30.04S HX  86
MARION         CLEAR     82  77  83 SW9       30.06S HX  91
MT. VERNON     PTCLDY    77  70  78 SW3       30.05S
CENTRALIA*     CLOUDY    81  77  88 S9        30.03S HX  87
SALEM*         PTCLDY    82  75  81 SW7       30.03S HX  88
METROPOLIS*    CLEAR     81  75  83 S5        30.08F HX  86
$$

ILZ067-068-072-073-078-083-087-091-250400-
SOUTHEAST ILLINOIS

CITY           SKY/WX    TMP DP  RH WIND       PRES   REMARKS
LAWRENCEVILLE  CLEAR     79  76  90 S8        30.05S HX  83
FLORA*         CLEAR     82  77  86 S8        30.03S HX  89
FAIRFIELD*     PTCLDY    79  76  91 S5        30.04S HX  84
HARRISBURG*    CLEAR     79  76  90 S5        30.06F HX  83
ROBINSON*      PTCLDY    76  75  95 S7        30.04F
CARMI*         CLEAR     78  75  91 S6        30.05F HX  81
$$

ABBREVIATIONS USED IN REMARKS
   TC - TEMPERATURE IN CELSIUS
  WCI - WIND CHILL INDEX
   HX - HEAT INDEX
  VSB - VISIBILITY
$$





USA.gov is the U.S. government's official web portal to all federal, state and local government web resources and services.